Showing default

MIDAS 4, 192

Orbit data source: Space-Track

MIDAS 4, 192 is a payload satellite owned by USAF SSD (US) in LEO that was launched on Sat, 21 Oct 1961 UTC via an ATLAS AGENA B launch vehicle from the Air Force Western Test Range (AFWTR). Payload-class satellites include a variety of spacecraft equipped with specific instruments for various scientific and technological missions. These include communications satellites like Starlink; space stations such as the ISS; scientific satellites like the Hubble; Earth observation satellites from companies like Planet Labs, Umbra, and HawkEye 360; GPS; miniature CubeSats for education and research; and military/defense satellites.

Loading next visibility...
Identifier
192, 1961-028A
Orbit
LEO
Country
Flag of USUS
Related business
Manufacturer
LMSC
Mission
Spacecraft
Bus & Motor
MIDAS, Unknown motor
Mass
~1,540 kg wet, 840 kg dry
Launch date (UTC)
1961-10-21 (65 years ago)
Launch vehicle
ATLAS AGENA B
Launch site
Air Force Western Test Range (AFWTR)
Object type
Payload
Rocket body
Debris
Shape & HBR
CONE, 1.0 m
Radar Cross Section
Large (>1 m²)

Expand to show TLE details & history
Last TLE update: 1 day ago

TLE from 1 day ago
0 MIDAS 4
1 00192U 61028A   26226.58160238 -.00000011  00000-0 -33585-2 0  9990
2 00192  95.8442 235.9008 0134284 270.5598  87.9869  8.67767906 53226
Epoch: 2026-08-14T13:57Z
TLE epoch observation values (Epoch: 2026-08-14T13:57:30.445Z)
Latitude
-0.00005°
Longitude
63.51918°
Altitude
3,624.159 km
Speed
6.314 km/s
True Right ascension
15h 43m 36s
True Declination
0° 00' 00"
Sunlit
Object was in daylight at epoch
Visualization orbit readout
Latitude
Unknown
Longitude
Unknown
Altitude
Unknown
Speed
Unknown
Apparent Right ascension
Unknown
Apparent Declination
Unknown
Sunlit
N/A
Visualization observer readout
Local Sidereal Time
13:22:01
Azimuth
Unknown
Elevation
Unknown
Doppler factor
Unknown
Orbital elements
Apogee altitude
3,757.09 km
Perigee altitude
3,488.497 km
Semi-major axis
10,000.931 km
Eccentricity
0.01343
Inclination
95.8442°
RAAN
235.9008°
Arg. of periapsis
270.5598°
True anomaly
89.52545°
Mean anomaly
87.9869°
Eccentric anomaly
88.75611°
Mean motion
2.17011 °/min
Orbital period
165.89 mins
BSTAR
-0.0033585
Loading maneuver chart data...
Computing Atmospheric mass density...
Loading historical data...
Loading historical data...
Loading historical data...
Loading historical data...
Loading historical data...
Loading historical data...
Loading historical data...

Documentation

Showing up to 5 results
|